DB0WGS-1 Weather Reports


time (UTC)temp
C
wind
direction
speed
KPH
gust
KPH
rain 1hr
cm
rain 24hr
cm
rain mn
cm
humidity
%
barometer
mb
20260906010540 0 4.8 6.4 0.00 0.10 0.00 99 1025.1
20260906005333 0 4.8 6.4 0.00 0.10 0.00 99 1025.1
20260906004127 0 4.8 6.4 0.00 0.10 0.00 99 1025.1
20260906002921 0 4.8 6.4 0.00 0.10 0.00 99 1025.0
20260906001716 0 4.8 9.7 0.00 0.10 0.00 99 1024.9
20260906000509 0 4.8 8.0 0.00 0.10 0.00 99 1024.9
20260905235306 0 4.8 8.0 0.00 0.10 0.00 99 1024.8
20260905234059 0 4.8 6.4 0.00 0.10 0.00 99 1024.8
20260905232852 0 4.8 6.4 0.00 0.10 0.00 99 1024.8
20260905231644 0 4.8 6.4 0.00 0.10 0.00 99 1024.7
20260905230438 0 4.8 6.4 0.00 0.10 0.00 99 1024.7
20260905225233 0 4.8 8.0 0.00 0.10 0.00 99 1024.6
20260905224027 0 4.8 8.0 0.00 0.10 0.00 99 1024.6
20260905222820 0 6.4 9.7 0.00 0.10 0.00 99 1024.5
20260905221615 0 6.4 9.7 0.00 0.10 0.00 99 1024.4
20260905220408 0 8.0 12.9 0.00 0.10 0.00 99 1024.3
20260905215203 0 6.4 12.9 0.00 0.10 0.00 99 1024.1
20260905213957 0 8.0 14.5 0.00 0.10 0.00 99 1024.0
20260905212750 0 8.0 12.9 0.00 0.10 0.00 99 1023.8
20260905211545 0 6.4 9.7 0.00 0.10 0.00 99 1023.8
20260905210338 0 6.4 12.9 0.00 0.10 0.00 99 1023.6
20260905205131 0 6.4 12.9 0.00 0.10 0.00 99 1023.5
20260905203925 0 6.4 12.9 0.00 0.10 0.00 99 1023.6
20260905202720 0 8.0 14.5 0.00 0.10 0.00 99 1023.5
20260905201514 0 8.0 12.9 0.00 0.10 0.00 99 1023.4
20260905200307 0 8.0 14.5 0.00 0.10 0.00 99 1023.3
20260905195102 0 9.7 17.7 0.00 0.10 0.00 99 1023.1
20260905193855 0 11.3 20.9 0.00 0.10 0.00 99 1023.0
20260905192649 0 11.3 20.9 0.00 0.10 0.00 99 1022.9
20260905191442 0 12.9 25.7 0.00 0.10 0.00 99 1022.8
20260905190237 0 12.9 19.3 0.00 0.10 0.00 99 1022.6
20260905185031 0 16.1 25.7 0.00 0.10 0.00 99 1022.3
20260905183825 0 17.7 29.0 0.00 0.10 0.00 99 1022.2
20260905182618 0 16.1 29.0 0.00 0.10 0.00 99 1022.0
20260905181413 0 14.5 25.7 0.00 0.10 0.00 99 1022.0
20260905180207 0 16.1 27.4 0.00 0.10 0.00 99 1021.8
20260905175000 0 16.1 27.4 0.00 0.10 0.00 99 1021.7
20260905173754 0 16.1 27.4 0.00 0.10 0.00 99 1021.6
20260905172548 0 14.5 20.9 0.00 0.10 0.00 99 1021.5
20260905171342 0 14.5 24.1 0.00 0.10 0.00 99 1021.4
20260905170136 0 14.5 25.7 0.00 0.10 0.00 99 1021.4
20260905164929 0 14.5 27.4 0.00 0.10 0.00 99 1021.4
20260905163725 0 11.3 19.3 0.00 0.10 0.00 99 1021.5
20260905162518 0 12.9 24.1 0.00 0.10 0.00 99 1021.3
20260905161313 0 12.9 20.9 0.00 0.10 0.00 99 1021.3
20260905160105 0 12.9 24.1 0.00 0.10 0.00 99 1021.2
20260905154859 0 12.9 27.4 0.00 0.10 0.00 99 1021.1
20260905153654 0 12.9 20.9 0.00 0.10 0.00 99 1021.2
20260905152449 0 12.9 24.1 0.00 0.10 0.00 99 1021.2
20260905151241 0 16.1 25.7 0.00 0.10 0.00 99 1021.2
20260905150035 0 16.1 29.0 0.00 0.10 0.00 99 1021.2
20260905144830 0 16.1 27.4 0.00 0.10 0.00 99 1021.2
20260905143626 0 14.5 25.7 0.00 0.10 0.00 99 1021.2
20260905142416 0 14.5 25.7 0.00 0.10 0.00 99 1021.3
20260905141211 0 11.3 19.3 0.00 0.10 0.00 99 1021.4
20260905140005 0 11.3 19.3 0.00 0.10 0.00 99 1021.6
20260905134800 0 9.7 16.1 0.00 0.10 0.00 99 1021.7
20260905133553 0 8.0 17.7 0.00 0.10 0.00 99 1021.8
20260905132346 0 11.3 17.7 0.00 0.10 0.00 99 1021.7
20260905131140 0 11.3 20.9 0.00 0.10 0.00 99 1021.7
20260905125936 0 12.9 20.9 0.00 0.10 0.00 99 1021.7
20260905124728 0 11.3 17.7 0.00 0.10 0.00 99 1021.7
20260905123522 0 9.7 17.7 0.00 0.10 0.00 99 1021.9
20260905122316 0 9.7 17.7 0.00 0.10 0.00 99 1022.0
20260905121110 0 11.3 19.3 0.00 0.10 0.00 99 1022.1
20260905115905 0 11.3 19.3 0.00 0.10 0.00 99 1022.2
20260905114658 0 11.3 20.9 0.00 0.10 0.00 99 1022.1
20260905113452 0 11.3 20.9 0.00 0.10 0.00 99 1022.2
20260905112247 0 11.3 19.3 0.00 0.10 0.00 99 1022.1
20260905111041 0 12.9 20.9 0.00 0.10 0.00 99 1021.9
20260905105833 0 9.7 19.3 0.00 0.10 0.00 99 1021.9
20260905104628 0 11.3 17.7 0.00 0.10 0.00 99 1021.8
20260905103421 0 9.7 16.1 0.00 0.10 0.00 99 1021.9
20260905102215 0 11.3 17.7 0.00 0.10 0.00 99 1021.8
20260905101009 0 9.7 17.7 0.00 0.10 0.00 99 1021.9
20260905095804 0 11.3 19.3 0.00 0.10 0.00 99 1021.8
20260905094557 0 11.3 17.7 0.00 0.10 0.00 99 1022.0
20260905093352 0 9.7 17.7 0.00 0.10 0.00 99 1022.0
20260905092145 0 9.7 16.1 0.00 0.10 0.00 99 1022.0
20260905090938 0 9.7 19.3 0.00 0.10 0.00 99 1022.1
20260905085733 0 9.7 16.1 0.00 0.10 0.00 99 1021.9
20260905084526 0 9.7 16.1 0.03 0.10 0.00 99 1021.8
20260905083321 0 11.3 16.1 0.00 0.10 0.00 99 1021.7
20260905082114 0 11.3 17.7 0.00 0.10 0.00 99 1021.6
20260905080909 0 12.9 19.3 0.00 0.10 0.00 99 1021.7
20260905075702 0 11.3 17.7 0.00 0.10 0.00 99 1021.5
20260905074456 0 9.7 14.5 0.03 0.10 0.00 99 1021.2
20260905073250 0 9.7 16.1 0.03 0.10 0.10 99 1021.2
20260905072044 0 8.0 14.5 0.05 0.10 0.10 99 1020.9
20260905070838 0 8.0 14.5 0.05 0.10 0.10 99 1020.7
20260905065632 0 9.7 14.5 0.05 0.08 0.08 99 1020.2
20260905064426 0 9.7 14.5 0.05 0.08 0.08 99 1020.2
20260905063220 0 9.7 14.5 0.08 0.08 0.08 99 1020.2
20260905062013 0 8.0 12.9 0.05 0.05 0.05 99 1019.7
20260905060807 0 6.4 12.9 0.05 0.05 0.05 99 1019.7
20260905055603 0 8.0 14.5 0.03 0.03 0.03 99 1019.6
20260905054356 0 6.4 12.9 0.03 0.03 0.03 99 1019.5
20260905053148 0 8.0 16.1 0.00 0.00 0.00 99 1019.5
20260905051943 0 14.5 30.6 0.00 0.00 0.00 99 1019.5
20260905050737 0 17.7 35.4 0.00 0.00 0.00 99 1019.5
20260905045531 0 20.9 35.4 0.00 0.00 0.00 99 1019.5
20260905044324 0 17.7 29.0 0.00 0.00 0.00 99 1018.7
20260905043118 0 14.5 27.4 0.00 0.00 0.00 99 1018.3
20260905041913 0 14.5 27.4 0.00 0.00 0.00 99 1018.0
20260905040707 0 16.1 25.7 0.00 0.00 0.00 99 1017.7
20260905035500 0 16.1 27.4 0.00 0.00 0.00 99 1017.3
20260905034254 0 17.7 29.0 0.00 0.00 0.00 99 1017.0
20260905033048 0 16.1 29.0 0.00 0.00 0.00 99 1016.7
20260905031843 0 8.0 14.5 0.00 0.00 0.00 99 1016.5
20260905030635 0 8.0 12.9 0.00 0.00 0.00 99 1016.4
20260905025429 0 8.0 14.5 0.00 0.00 0.00 99 1016.4
20260905024224 0 6.4 9.7 0.00 0.00 0.00 99 1016.1
20260905023018 0 6.4 9.7 0.00 0.00 0.00 99 1016.0
20260905021812 0 6.4 12.9 0.00 0.00 0.00 99 1015.9
20260905020606 0 9.7 16.1 0.00 0.00 0.00 99 1015.9
20260905015400 0 8.0 14.5 0.00 0.00 0.00 99 1015.9
20260905014154 0 8.0 16.1 0.00 0.00 0.00 99 1015.8
20260905012947 0 9.7 16.1 0.00 0.00 0.00 99 1015.8
20260905011741 0 8.0 17.7 0.00 0.00 0.00 99 1015.7